owner,sensor,date,latitude,longitude,air_temperature,qcFlag 
DISL,ioos:station:DISL:KATA:1,2013-09-01T00:00:00Z,30.2583,-88.2131,29.35,1111122 
DISL,ioos:station:DISL:KATA:1,2013-09-01T00:30:00Z,30.2583,-88.2131,29.15,1111122 
DISL,ioos:station:DISL:KATA:1,2013-09-01T01:00:00Z,30.2583,-88.2131,29.15,1111122 
DISL,ioos:station:DISL:KATA:1,2013-09-01T01:30:00Z,30.2583,-88.2131,29.01,1111122 
DISL,ioos:station:DISL:KATA:1,2013-09-01T02:00:00Z,30.2583,-88.2131,28.98,1111122 
DISL,ioos:station:DISL:KATA:1,2013-09-01T02:30:00Z,30.2583,-88.2131,28.84,1111122 
DISL,ioos:station:DISL:KATA:1,2013-09-01T03:00:00Z,30.2583,-88.2131,29.01,1111122 
DISL,ioos:station:DISL:KATA:1,2013-09-01T03:30:00Z,30.2583,-88.2131,28.84,1111122 
DISL,ioos:station:DISL:KATA:1,2013-09-01T04:00:00Z,30.2583,-88.2131,28.7,1111122 
DISL,ioos:station:DISL:KATA:1,2013-09-01T04:30:00Z,30.2583,-88.2131,28.77,1111122 
DISL,ioos:station:DISL:KATA:1,2013-09-01T05:00:00Z,30.2583,-88.2131,28.64,1111122 
DISL,ioos:station:DISL:KATA:1,2013-09-01T05:30:00Z,30.2583,-88.2131,28.64,1111122 
DISL,ioos:station:DISL:KATA:1,2013-09-01T06:00:00Z,30.2583,-88.2131,28.47,1111122 
DISL,ioos:station:DISL:KATA:1,2013-09-01T06:30:00Z,30.2583,-88.2131,28.4,1111122 
DISL,ioos:station:DISL:KATA:1,2013-09-01T07:00:00Z,30.2583,-88.2131,28.36,1111122 
DISL,ioos:station:DISL:KATA:1,2013-09-01T07:30:00Z,30.2583,-88.2131,28.4,1111122 
DISL,ioos:station:DISL:KATA:1,2013-09-01T08:00:00Z,30.2583,-88.2131,28.5,1111122 
DISL,ioos:station:DISL:KATA:1,2013-09-01T08:30:00Z,30.2583,-88.2131,28.26,1111122 
DISL,ioos:station:DISL:KATA:1,2013-09-01T09:00:00Z,30.2583,-88.2131,28.33,1111122 
DISL,ioos:station:DISL:KATA:1,2013-09-01T09:30:00Z,30.2583,-88.2131,28.4,1111122 
DISL,ioos:station:DISL:KATA:1,2013-09-01T10:00:00Z,30.2583,-88.2131,28.23,1111122 
DISL,ioos:station:DISL:KATA:1,2013-09-01T10:30:00Z,30.2583,-88.2131,28.23,1111122 
DISL,ioos:station:DISL:KATA:1,2013-09-01T11:00:00Z,30.2583,-88.2131,27.89,1111122 
DISL,ioos:station:DISL:KATA:1,2013-09-01T11:30:00Z,30.2583,-88.2131,27.65,1111122 
DISL,ioos:station:DISL:KATA:1,2013-09-01T12:00:00Z,30.2583,-88.2131,27.75,1111122 
DISL,ioos:station:DISL:KATA:1,2013-09-01T12:30:00Z,30.2583,-88.2131,27.69,1111122 
DISL,ioos:station:DISL:KATA:1,2013-09-01T13:00:00Z,30.2583,-88.2131,27.75,1111122 
DISL,ioos:station:DISL:KATA:1,2013-09-01T13:30:00Z,30.2583,-88.2131,28.03,1111122 
DISL,ioos:station:DISL:KATA:1,2013-09-01T14:00:00Z,30.2583,-88.2131,27.99,1111122 
DISL,ioos:station:DISL:KATA:1,2013-09-01T14:30:00Z,30.2583,-88.2131,28.03,1111122 
DISL,ioos:station:DISL:KATA:1,2013-09-01T15:00:00Z,30.2583,-88.2131,27.89,1111122 
DISL,ioos:station:DISL:KATA:1,2013-09-01T15:30:00Z,30.2583,-88.2131,28.13,1111122 
DISL,ioos:station:DISL:KATA:1,2013-09-01T16:00:00Z,30.2583,-88.2131,28.23,1111122 
DISL,ioos:station:DISL:KATA:1,2013-09-01T16:30:00Z,30.2583,-88.2131,28.43,1111122 
DISL,ioos:station:DISL:KATA:1,2013-09-01T17:00:00Z,30.2583,-88.2131,28.53,1111122 
DISL,ioos:station:DISL:KATA:1,2013-09-01T17:30:00Z,30.2583,-88.2131,28.97,1111122 
DISL,ioos:station:DISL:KATA:1,2013-09-01T18:00:00Z,30.2583,-88.2131,29.14,1111122 
DISL,ioos:station:DISL:KATA:1,2013-09-01T18:30:00Z,30.2583,-88.2131,29.14,1111122 
DISL,ioos:station:DISL:KATA:1,2013-09-01T19:00:00Z,30.2583,-88.2131,29.21,1111122 
DISL,ioos:station:DISL:KATA:1,2013-09-01T19:30:00Z,30.2583,-88.2131,29.04,1111122 
DISL,ioos:station:DISL:KATA:1,2013-09-01T20:00:00Z,30.2583,-88.2131,29.45,1111122 
DISL,ioos:station:DISL:KATA:1,2013-09-01T20:30:00Z,30.2583,-88.2131,29.35,1111122 
DISL,ioos:station:DISL:KATA:1,2013-09-01T21:00:00Z,30.2583,-88.2131,29.21,1111122 
DISL,ioos:station:DISL:KATA:1,2013-09-01T21:30:00Z,30.2583,-88.2131,28.98,1111122 
DISL,ioos:station:DISL:KATA:1,2013-09-01T22:00:00Z,30.2583,-88.2131,28.94,1111122 
DISL,ioos:station:DISL:KATA:1,2013-09-01T22:30:00Z,30.2583,-88.2131,28.81,1111122 
DISL,ioos:station:DISL:KATA:1,2013-09-01T23:00:00Z,30.2583,-88.2131,28.81,1111122 
DISL,ioos:station:DISL:KATA:1,2013-09-01T23:30:00Z,30.2583,-88.2131,28.77,1111122 
DISL,ioos:station:DISL:KATA:1,2013-09-02T00:00:00Z,30.2583,-88.2131,28.77,1111122 
DISL,ioos:station:DISL:KATA:1,2013-09-02T00:30:00Z,30.2583,-88.2131,28.64,1111122 
DISL,ioos:station:DISL:KATA:1,2013-09-02T01:00:00Z,30.2583,-88.2131,28.6,1111122 
DISL,ioos:station:DISL:KATA:1,2013-09-02T01:30:00Z,30.2583,-88.2131,28.57,1111122 
DISL,ioos:station:DISL:KATA:1,2013-09-02T02:00:00Z,30.2583,-88.2131,28.57,1111122 
DISL,ioos:station:DISL:KATA:1,2013-09-02T02:30:00Z,30.2583,-88.2131,28.64,1111122 
DISL,ioos:station:DISL:KATA:1,2013-09-02T03:00:00Z,30.2583,-88.2131,28.64,1111122 
DISL,ioos:station:DISL:KATA:1,2013-09-02T03:30:00Z,30.2583,-88.2131,28.6,1111122 
DISL,ioos:station:DISL:KATA:1,2013-09-02T04:00:00Z,30.2583,-88.2131,28.81,1111122 
DISL,ioos:station:DISL:KATA:1,2013-09-02T04:30:00Z,30.2583,-88.2131,28.64,1111122 
DISL,ioos:station:DISL:KATA:1,2013-09-02T05:00:00Z,30.2583,-88.2131,28.74,1111122 
DISL,ioos:station:DISL:KATA:1,2013-09-02T05:30:00Z,30.2583,-88.2131,28.6,1111122 
DISL,ioos:station:DISL:KATA:1,2013-09-02T06:00:00Z,30.2583,-88.2131,28.5,1111122 
DISL,ioos:station:DISL:KATA:1,2013-09-02T06:30:00Z,30.2583,-88.2131,28.64,1111122 
DISL,ioos:station:DISL:KATA:1,2013-09-02T07:00:00Z,30.2583,-88.2131,28.67,1111122 
DISL,ioos:station:DISL:KATA:1,2013-09-02T07:30:00Z,30.2583,-88.2131,28.6,1111122 
DISL,ioos:station:DISL:KATA:1,2013-09-02T08:00:00Z,30.2583,-88.2131,28.53,1111122 
DISL,ioos:station:DISL:KATA:1,2013-09-02T08:30:00Z,30.2583,-88.2131,28.64,1111122 
DISL,ioos:station:DISL:KATA:1,2013-09-02T09:00:00Z,30.2583,-88.2131,28.6,1111122 
DISL,ioos:station:DISL:KATA:1,2013-09-02T09:30:00Z,30.2583,-88.2131,28.53,1111122 
DISL,ioos:station:DISL:KATA:1,2013-09-02T10:00:00Z,30.2583,-88.2131,28.57,1111122 
DISL,ioos:station:DISL:KATA:1,2013-09-02T10:30:00Z,30.2583,-88.2131,28.57,1111122 
DISL,ioos:station:DISL:KATA:1,2013-09-02T11:00:00Z,30.2583,-88.2131,28.64,1111122 
DISL,ioos:station:DISL:KATA:1,2013-09-02T11:30:00Z,30.2583,-88.2131,28.33,1111122 
DISL,ioos:station:DISL:KATA:1,2013-09-02T12:00:00Z,30.2583,-88.2131,28.74,1111122 
DISL,ioos:station:DISL:KATA:1,2013-09-02T12:30:00Z,30.2583,-88.2131,28.6,1111122 
DISL,ioos:station:DISL:KATA:1,2013-09-02T13:00:00Z,30.2583,-88.2131,28.53,1111122 
DISL,ioos:station:DISL:KATA:1,2013-09-02T13:30:00Z,30.2583,-88.2131,28.09,1111122 
DISL,ioos:station:DISL:KATA:1,2013-09-02T14:00:00Z,30.2583,-88.2131,28.09,1111122 
DISL,ioos:station:DISL:KATA:1,2013-09-02T14:30:00Z,30.2583,-88.2131,28.06,1111122 
DISL,ioos:station:DISL:KATA:1,2013-09-02T15:00:00Z,30.2583,-88.2131,28.36,1111122 
DISL,ioos:station:DISL:KATA:1,2013-09-02T15:30:00Z,30.2583,-88.2131,28.74,1111122 
DISL,ioos:station:DISL:KATA:1,2013-09-02T16:00:00Z,30.2583,-88.2131,28.75,1111122 
DISL,ioos:station:DISL:KATA:1,2013-09-02T16:30:00Z,30.2583,-88.2131,28.99,1111122 
DISL,ioos:station:DISL:KATA:1,2013-09-02T17:00:00Z,30.2583,-88.2131,28.95,1111122 
DISL,ioos:station:DISL:KATA:1,2013-09-02T17:30:00Z,30.2583,-88.2131,29.05,1111122 
DISL,ioos:station:DISL:KATA:1,2013-09-02T18:00:00Z,30.2583,-88.2131,29.22,1111122 
DISL,ioos:station:DISL:KATA:1,2013-09-02T18:30:00Z,30.2583,-88.2131,29.16,1111122 
DISL,ioos:station:DISL:KATA:1,2013-09-02T19:00:00Z,30.2583,-88.2131,29.58,1111122 
DISL,ioos:station:DISL:KATA:1,2013-09-02T19:30:00Z,30.2583,-88.2131,29.31,1111122 
DISL,ioos:station:DISL:KATA:1,2013-09-02T20:00:00Z,30.2583,-88.2131,29.62,1111122 
DISL,ioos:station:DISL:KATA:1,2013-09-02T20:30:00Z,30.2583,-88.2131,29.86,1111122 
DISL,ioos:station:DISL:KATA:1,2013-09-02T21:00:00Z,30.2583,-88.2131,29.38,1111122 
DISL,ioos:station:DISL:KATA:1,2013-09-02T21:30:00Z,30.2583,-88.2131,29.45,1111122 
DISL,ioos:station:DISL:KATA:1,2013-09-02T22:00:00Z,30.2583,-88.2131,29.38,1111122 
DISL,ioos:station:DISL:KATA:1,2013-09-02T22:30:00Z,30.2583,-88.2131,29.32,1111122 
DISL,ioos:station:DISL:KATA:1,2013-09-02T23:00:00Z,30.2583,-88.2131,28.94,1111122 
DISL,ioos:station:DISL:KATA:1,2013-09-02T23:30:00Z,30.2583,-88.2131,28.91,1111122 
DISL,ioos:station:DISL:KATA:1,2013-09-03T00:00:00Z,30.2583,-88.2131,28.87,1111122 
DISL,ioos:station:DISL:KATA:1,2013-09-03T00:30:00Z,30.2583,-88.2131,28.74,1111122 
DISL,ioos:station:DISL:KATA:1,2013-09-03T01:00:00Z,30.2583,-88.2131,28.5,1111122 
DISL,ioos:station:DISL:KATA:1,2013-09-03T01:30:00Z,30.2583,-88.2131,28.57,1111122 
DISL,ioos:station:DISL:KATA:1,2013-09-03T02:00:00Z,30.2583,-88.2131,28.67,1111122 
DISL,ioos:station:DISL:KATA:1,2013-09-03T02:30:00Z,30.2583,-88.2131,28.77,1111122 
DISL,ioos:station:DISL:KATA:1,2013-09-03T03:00:00Z,30.2583,-88.2131,28.84,1111122 
DISL,ioos:station:DISL:KATA:1,2013-09-03T03:30:00Z,30.2583,-88.2131,28.67,1111122 
DISL,ioos:station:DISL:KATA:1,2013-09-03T04:00:00Z,30.2583,-88.2131,28.7,1111122 
DISL,ioos:station:DISL:KATA:1,2013-09-03T04:30:00Z,30.2583,-88.2131,28.81,1111122 
DISL,ioos:station:DISL:KATA:1,2013-09-03T05:00:00Z,30.2583,-88.2131,28.94,1111122 
DISL,ioos:station:DISL:KATA:1,2013-09-03T05:30:00Z,30.2583,-88.2131,28.87,1111122 
DISL,ioos:station:DISL:KATA:1,2013-09-03T06:00:00Z,30.2583,-88.2131,28.84,1111122 
DISL,ioos:station:DISL:KATA:1,2013-09-03T06:30:00Z,30.2583,-88.2131,28.67,1111122 
DISL,ioos:station:DISL:KATA:1,2013-09-03T07:00:00Z,30.2583,-88.2131,28.81,1111122 
DISL,ioos:station:DISL:KATA:1,2013-09-03T07:30:00Z,30.2583,-88.2131,28.81,1111122 
DISL,ioos:station:DISL:KATA:1,2013-09-03T08:00:00Z,30.2583,-88.2131,27.38,1111122 
DISL,ioos:station:DISL:KATA:1,2013-09-03T08:30:00Z,30.2583,-88.2131,28.1,1111122 
DISL,ioos:station:DISL:KATA:1,2013-09-03T09:00:00Z,30.2583,-88.2131,28.75,1111122 
DISL,ioos:station:DISL:KATA:1,2013-09-03T09:30:00Z,30.2583,-88.2131,28.57,1111122 
DISL,ioos:station:DISL:KATA:1,2013-09-03T10:00:00Z,30.2583,-88.2131,28.87,1111122 
DISL,ioos:station:DISL:KATA:1,2013-09-03T10:30:00Z,30.2583,-88.2131,28.57,1111122 
DISL,ioos:station:DISL:KATA:1,2013-09-03T11:00:00Z,30.2583,-88.2131,28.47,1111122 
DISL,ioos:station:DISL:KATA:1,2013-09-03T11:30:00Z,30.2583,-88.2131,28.16,1111122 
DISL,ioos:station:DISL:KATA:1,2013-09-03T12:00:00Z,30.2583,-88.2131,28.33,1111122 
DISL,ioos:station:DISL:KATA:1,2013-09-03T12:30:00Z,30.2583,-88.2131,28.3,1111122 
DISL,ioos:station:DISL:KATA:1,2013-09-03T13:00:00Z,30.2583,-88.2131,28.23,1111122 
DISL,ioos:station:DISL:KATA:1,2013-09-03T13:30:00Z,30.2583,-88.2131,27.89,1111122 
DISL,ioos:station:DISL:KATA:1,2013-09-03T14:00:00Z,30.2583,-88.2131,28.16,1111122 
DISL,ioos:station:DISL:KATA:1,2013-09-03T14:30:00Z,30.2583,-88.2131,28.09,1111122 
DISL,ioos:station:DISL:KATA:1,2013-09-03T15:00:00Z,30.2583,-88.2131,28.36,1111122 
DISL,ioos:station:DISL:KATA:1,2013-09-03T15:30:00Z,30.2583,-88.2131,28.4,1111122 
DISL,ioos:station:DISL:KATA:1,2013-09-03T16:00:00Z,30.2583,-88.2131,28.86,1111122 
DISL,ioos:station:DISL:KATA:1,2013-09-03T16:30:00Z,30.2583,-88.2131,29.02,1111122 
DISL,ioos:station:DISL:KATA:1,2013-09-03T17:00:00Z,30.2583,-88.2131,29.09,1111122 
DISL,ioos:station:DISL:KATA:1,2013-09-03T17:30:00Z,30.2583,-88.2131,28.92,1111122 
DISL,ioos:station:DISL:KATA:1,2013-09-03T18:00:00Z,30.2583,-88.2131,29.16,1111122 
DISL,ioos:station:DISL:KATA:1,2013-09-03T18:30:00Z,30.2583,-88.2131,29.13,1111122 
DISL,ioos:station:DISL:KATA:1,2013-09-03T19:00:00Z,30.2583,-88.2131,29.31,1111122 
DISL,ioos:station:DISL:KATA:1,2013-09-03T19:30:00Z,30.2583,-88.2131,29.35,1111122 
DISL,ioos:station:DISL:KATA:1,2013-09-03T20:00:00Z,30.2583,-88.2131,29.49,1111122 
DISL,ioos:station:DISL:KATA:1,2013-09-03T20:30:00Z,30.2583,-88.2131,29.45,1111122 
DISL,ioos:station:DISL:KATA:1,2013-09-03T21:00:00Z,30.2583,-88.2131,29.45,1111122 
DISL,ioos:station:DISL:KATA:1,2013-09-03T21:30:00Z,30.2583,-88.2131,29.59,1111122 
DISL,ioos:station:DISL:KATA:1,2013-09-03T22:00:00Z,30.2583,-88.2131,29.52,1111122 
DISL,ioos:station:DISL:KATA:1,2013-09-03T22:30:00Z,30.2583,-88.2131,29.28,1111122 
DISL,ioos:station:DISL:KATA:1,2013-09-03T23:00:00Z,30.2583,-88.2131,29.21,1111122 
DISL,ioos:station:DISL:KATA:1,2013-09-03T23:30:00Z,30.2583,-88.2131,25.95,1111122 
DISL,ioos:station:DISL:KATA:1,2013-09-04T00:00:00Z,30.2583,-88.2131,26.71,1111122 
DISL,ioos:station:DISL:KATA:1,2013-09-04T00:30:00Z,30.2583,-88.2131,26.27,1111122 
DISL,ioos:station:DISL:KATA:1,2013-09-04T01:00:00Z,30.2583,-88.2131,27.26,1111122 
DISL,ioos:station:DISL:KATA:1,2013-09-04T01:30:00Z,30.2583,-88.2131,27.77,1111122 
DISL,ioos:station:DISL:KATA:1,2013-09-04T02:00:00Z,30.2583,-88.2131,27.05,1111122 
DISL,ioos:station:DISL:KATA:1,2013-09-04T02:30:00Z,30.2583,-88.2131,27.53,1111122 
DISL,ioos:station:DISL:KATA:1,2013-09-04T03:00:00Z,30.2583,-88.2131,27.83,1111122 
DISL,ioos:station:DISL:KATA:1,2013-09-04T03:30:00Z,30.2583,-88.2131,28.0,1111122 
DISL,ioos:station:DISL:KATA:1,2013-09-04T04:00:00Z,30.2583,-88.2131,28.3,1111122 
DISL,ioos:station:DISL:KATA:1,2013-09-04T04:30:00Z,30.2583,-88.2131,28.37,1111122 
DISL,ioos:station:DISL:KATA:1,2013-09-04T05:00:00Z,30.2583,-88.2131,28.77,1111122 
DISL,ioos:station:DISL:KATA:1,2013-09-04T05:30:00Z,30.2583,-88.2131,28.57,1111122 
DISL,ioos:station:DISL:KATA:1,2013-09-04T06:00:00Z,30.2583,-88.2131,27.59,1111122 
DISL,ioos:station:DISL:KATA:1,2013-09-04T06:30:00Z,30.2583,-88.2131,27.66,1111122 
DISL,ioos:station:DISL:KATA:1,2013-09-04T07:00:00Z,30.2583,-88.2131,27.45,1111122 
DISL,ioos:station:DISL:KATA:1,2013-09-04T07:30:00Z,30.2583,-88.2131,27.32,1111122 
DISL,ioos:station:DISL:KATA:1,2013-09-04T08:00:00Z,30.2583,-88.2131,26.51,1111122 
DISL,ioos:station:DISL:KATA:1,2013-09-04T08:30:00Z,30.2583,-88.2131,25.83,1111122 
DISL,ioos:station:DISL:KATA:1,2013-09-04T09:00:00Z,30.2583,-88.2131,26.34,1111122 
DISL,ioos:station:DISL:KATA:1,2013-09-04T09:30:00Z,30.2583,-88.2131,26.34,1111122 
DISL,ioos:station:DISL:KATA:1,2013-09-04T10:00:00Z,30.2583,-88.2131,26.88,1111122 
DISL,ioos:station:DISL:KATA:1,2013-09-04T10:30:00Z,30.2583,-88.2131,27.12,1111122 
DISL,ioos:station:DISL:KATA:1,2013-09-04T11:00:00Z,30.2583,-88.2131,27.19,1111122 
DISL,ioos:station:DISL:KATA:1,2013-09-04T11:30:00Z,30.2583,-88.2131,27.22,1111122 
DISL,ioos:station:DISL:KATA:1,2013-09-04T12:00:00Z,30.2583,-88.2131,27.63,1111122 
DISL,ioos:station:DISL:KATA:1,2013-09-04T12:30:00Z,30.2583,-88.2131,28.06,1111122 
DISL,ioos:station:DISL:KATA:1,2013-09-04T13:00:00Z,30.2583,-88.2131,28.03,1111122 
DISL,ioos:station:DISL:KATA:1,2013-09-04T13:30:00Z,30.2583,-88.2131,28.7,1111122 
DISL,ioos:station:DISL:KATA:1,2013-09-04T14:00:00Z,30.2583,-88.2131,30.61,1111122 
DISL,ioos:station:DISL:KATA:1,2013-09-04T14:30:00Z,30.2583,-88.2131,30.54,1111122 
DISL,ioos:station:DISL:KATA:1,2013-09-04T15:00:00Z,30.2583,-88.2131,28.43,1111122 
DISL,ioos:station:DISL:KATA:1,2013-09-04T15:30:00Z,30.2583,-88.2131,28.64,1111122 
DISL,ioos:station:DISL:KATA:1,2013-09-04T16:00:00Z,30.2583,-88.2131,28.58,1111122 
DISL,ioos:station:DISL:KATA:1,2013-09-04T16:30:00Z,30.2583,-88.2131,28.82,1111122 
DISL,ioos:station:DISL:KATA:1,2013-09-04T17:00:00Z,30.2583,-88.2131,28.85,1111122 
DISL,ioos:station:DISL:KATA:1,2013-09-04T17:30:00Z,30.2583,-88.2131,28.95,1111122 
DISL,ioos:station:DISL:KATA:1,2013-09-04T18:00:00Z,30.2583,-88.2131,28.95,1111122 
DISL,ioos:station:DISL:KATA:1,2013-09-04T18:30:00Z,30.2583,-88.2131,28.92,1111122 
DISL,ioos:station:DISL:KATA:1,2013-09-04T19:00:00Z,30.2583,-88.2131,28.88,1111122 
DISL,ioos:station:DISL:KATA:1,2013-09-04T19:30:00Z,30.2583,-88.2131,28.99,1111122 
DISL,ioos:station:DISL:KATA:1,2013-09-04T20:00:00Z,30.2583,-88.2131,29.0,1111122 
DISL,ioos:station:DISL:KATA:1,2013-09-04T20:30:00Z,30.2583,-88.2131,29.11,1111122 
DISL,ioos:station:DISL:KATA:1,2013-09-04T21:00:00Z,30.2583,-88.2131,29.01,1111122 
DISL,ioos:station:DISL:KATA:1,2013-09-04T21:30:00Z,30.2583,-88.2131,29.08,1111122 
DISL,ioos:station:DISL:KATA:1,2013-09-04T22:00:00Z,30.2583,-88.2131,28.94,1111122 
DISL,ioos:station:DISL:KATA:1,2013-09-04T22:30:00Z,30.2583,-88.2131,29.11,1111122 
DISL,ioos:station:DISL:KATA:1,2013-09-04T23:00:00Z,30.2583,-88.2131,28.94,1111122 
DISL,ioos:station:DISL:KATA:1,2013-09-04T23:30:00Z,30.2583,-88.2131,28.91,1111122 
DISL,ioos:station:DISL:KATA:1,2013-09-05T00:00:00Z,30.2583,-88.2131,28.77,1111122 
DISL,ioos:station:DISL:KATA:1,2013-09-05T00:30:00Z,30.2583,-88.2131,29.04,1111122 
DISL,ioos:station:DISL:KATA:1,2013-09-05T01:00:00Z,30.2583,-88.2131,28.94,1111122 
DISL,ioos:station:DISL:KATA:1,2013-09-05T01:30:00Z,30.2583,-88.2131,28.91,1111122 
DISL,ioos:station:DISL:KATA:1,2013-09-05T02:00:00Z,30.2583,-88.2131,28.87,1111122 
DISL,ioos:station:DISL:KATA:1,2013-09-05T02:30:00Z,30.2583,-88.2131,28.81,1111122 
DISL,ioos:station:DISL:KATA:1,2013-09-05T03:00:00Z,30.2583,-88.2131,28.81,1111122 
DISL,ioos:station:DISL:KATA:1,2013-09-05T03:30:00Z,30.2583,-88.2131,28.74,1111122 
DISL,ioos:station:DISL:KATA:1,2013-09-05T04:00:00Z,30.2583,-88.2131,28.67,1111122 
DISL,ioos:station:DISL:KATA:1,2013-09-05T04:30:00Z,30.2583,-88.2131,28.74,1111122 
DISL,ioos:station:DISL:KATA:1,2013-09-05T05:00:00Z,30.2583,-88.2131,28.57,1111122 
DISL,ioos:station:DISL:KATA:1,2013-09-05T05:30:00Z,30.2583,-88.2131,28.6,1111122 
DISL,ioos:station:DISL:KATA:1,2013-09-05T06:00:00Z,30.2583,-88.2131,28.57,1111122 
DISL,ioos:station:DISL:KATA:1,2013-09-05T06:30:00Z,30.2583,-88.2131,28.4,1111122 
DISL,ioos:station:DISL:KATA:1,2013-09-05T07:00:00Z,30.2583,-88.2131,28.37,1111122 
DISL,ioos:station:DISL:KATA:1,2013-09-05T07:30:00Z,30.2583,-88.2131,28.37,1111122 
DISL,ioos:station:DISL:KATA:1,2013-09-05T08:00:00Z,30.2583,-88.2131,28.3,1111122 
DISL,ioos:station:DISL:KATA:1,2013-09-05T08:30:00Z,30.2583,-88.2131,28.43,1111122 
DISL,ioos:station:DISL:KATA:1,2013-09-05T09:00:00Z,30.2583,-88.2131,28.37,1111122 
DISL,ioos:station:DISL:KATA:1,2013-09-05T09:30:00Z,30.2583,-88.2131,28.26,1111122 
DISL,ioos:station:DISL:KATA:1,2013-09-05T10:00:00Z,30.2583,-88.2131,28.23,1111122 
DISL,ioos:station:DISL:KATA:1,2013-09-05T10:30:00Z,30.2583,-88.2131,28.27,1111122 
DISL,ioos:station:DISL:KATA:1,2013-09-05T11:00:00Z,30.2583,-88.2131,28.41,1111122 
DISL,ioos:station:DISL:KATA:1,2013-09-05T11:30:00Z,30.2583,-88.2131,27.93,1111122 
DISL,ioos:station:DISL:KATA:1,2013-09-05T12:00:00Z,30.2583,-88.2131,28.92,1111122 
DISL,ioos:station:DISL:KATA:1,2013-09-05T12:30:00Z,30.2583,-88.2131,27.72,1111122 
DISL,ioos:station:DISL:KATA:1,2013-09-05T13:00:00Z,30.2583,-88.2131,28.53,1111122 
DISL,ioos:station:DISL:KATA:1,2013-09-05T13:30:00Z,30.2583,-88.2131,28.64,1111122 
DISL,ioos:station:DISL:KATA:1,2013-09-05T14:00:00Z,30.2583,-88.2131,29.32,1111122 
DISL,ioos:station:DISL:KATA:1,2013-09-05T14:30:00Z,30.2583,-88.2131,29.99,1111122 
DISL,ioos:station:DISL:KATA:1,2013-09-05T15:00:00Z,30.2583,-88.2131,30.03,1111122 
DISL,ioos:station:DISL:KATA:1,2013-09-05T15:30:00Z,30.2583,-88.2131,30.06,1111122 
DISL,ioos:station:DISL:KATA:1,2013-09-05T16:00:00Z,30.2583,-88.2131,29.48,1111122 
DISL,ioos:station:DISL:KATA:1,2013-09-05T16:30:00Z,30.2583,-88.2131,29.85,1111122 
DISL,ioos:station:DISL:KATA:1,2013-09-05T17:00:00Z,30.2583,-88.2131,30.09,1111122 
DISL,ioos:station:DISL:KATA:1,2013-09-05T17:30:00Z,30.2583,-88.2131,30.32,1111122 
DISL,ioos:station:DISL:KATA:1,2013-09-05T18:00:00Z,30.2583,-88.2131,30.58,1111122 
DISL,ioos:station:DISL:KATA:1,2013-09-05T18:30:00Z,30.2583,-88.2131,29.22,1111122 
DISL,ioos:station:DISL:KATA:1,2013-09-05T19:00:00Z,30.2583,-88.2131,29.02,1111122 
DISL,ioos:station:DISL:KATA:1,2013-09-05T19:30:00Z,30.2583,-88.2131,29.12,1111122 
DISL,ioos:station:DISL:KATA:1,2013-09-05T20:00:00Z,30.2583,-88.2131,29.1,1111122 
DISL,ioos:station:DISL:KATA:1,2013-09-05T20:30:00Z,30.2583,-88.2131,29.07,1111122 
DISL,ioos:station:DISL:KATA:1,2013-09-05T21:00:00Z,30.2583,-88.2131,29.04,1111122 
DISL,ioos:station:DISL:KATA:1,2013-09-05T21:30:00Z,30.2583,-88.2131,29.21,1111122 
DISL,ioos:station:DISL:KATA:1,2013-09-05T22:00:00Z,30.2583,-88.2131,29.14,1111122 
DISL,ioos:station:DISL:KATA:1,2013-09-05T22:30:00Z,30.2583,-88.2131,29.14,1111122 
DISL,ioos:station:DISL:KATA:1,2013-09-05T23:00:00Z,30.2583,-88.2131,29.25,1111122 
DISL,ioos:station:DISL:KATA:1,2013-09-05T23:30:00Z,30.2583,-88.2131,29.21,1111122 
DISL,ioos:station:DISL:KATA:1,2013-09-06T00:00:00Z,30.2583,-88.2131,29.01,1111122 
DISL,ioos:station:DISL:KATA:1,2013-09-06T00:30:00Z,30.2583,-88.2131,28.87,1111122 
DISL,ioos:station:DISL:KATA:1,2013-09-06T01:00:00Z,30.2583,-88.2131,29.04,1111122 
DISL,ioos:station:DISL:KATA:1,2013-09-06T01:30:00Z,30.2583,-88.2131,28.94,1111122 
DISL,ioos:station:DISL:KATA:1,2013-09-06T02:00:00Z,30.2583,-88.2131,28.91,1111122 
DISL,ioos:station:DISL:KATA:1,2013-09-06T02:30:00Z,30.2583,-88.2131,28.91,1111122 
DISL,ioos:station:DISL:KATA:1,2013-09-06T03:00:00Z,30.2583,-88.2131,28.94,1111122 
DISL,ioos:station:DISL:KATA:1,2013-09-06T03:30:00Z,30.2583,-88.2131,28.94,1111122 
DISL,ioos:station:DISL:KATA:1,2013-09-06T04:00:00Z,30.2583,-88.2131,28.84,1111122 
DISL,ioos:station:DISL:KATA:1,2013-09-06T04:30:00Z,30.2583,-88.2131,28.81,1111122 
DISL,ioos:station:DISL:KATA:1,2013-09-06T05:00:00Z,30.2583,-88.2131,28.4,1111122 
DISL,ioos:station:DISL:KATA:1,2013-09-06T05:30:00Z,30.2583,-88.2131,28.33,1111122 
DISL,ioos:station:DISL:KATA:1,2013-09-06T06:00:00Z,30.2583,-88.2131,28.3,1111122 
DISL,ioos:station:DISL:KATA:1,2013-09-06T06:30:00Z,30.2583,-88.2131,28.33,1111122 
DISL,ioos:station:DISL:KATA:1,2013-09-06T07:00:00Z,30.2583,-88.2131,28.2,1111122 
DISL,ioos:station:DISL:KATA:1,2013-09-06T07:30:00Z,30.2583,-88.2131,28.06,1111122 
DISL,ioos:station:DISL:KATA:1,2013-09-06T08:00:00Z,30.2583,-88.2131,28.03,1111122 
DISL,ioos:station:DISL:KATA:1,2013-09-06T08:30:00Z,30.2583,-88.2131,27.69,1111122 
DISL,ioos:station:DISL:KATA:1,2013-09-06T09:00:00Z,30.2583,-88.2131,27.46,1111122 
DISL,ioos:station:DISL:KATA:1,2013-09-06T09:30:00Z,30.2583,-88.2131,27.49,1111122 
DISL,ioos:station:DISL:KATA:1,2013-09-06T10:00:00Z,30.2583,-88.2131,26.92,1111122 
DISL,ioos:station:DISL:KATA:1,2013-09-06T10:30:00Z,30.2583,-88.2131,27.32,1111122 
DISL,ioos:station:DISL:KATA:1,2013-09-06T11:00:00Z,30.2583,-88.2131,27.29,1111122 
DISL,ioos:station:DISL:KATA:1,2013-09-06T11:30:00Z,30.2583,-88.2131,26.98,1111122 
DISL,ioos:station:DISL:KATA:1,2013-09-06T12:00:00Z,30.2583,-88.2131,27.12,1111122 
DISL,ioos:station:DISL:KATA:1,2013-09-06T12:30:00Z,30.2583,-88.2131,26.95,1111122 
DISL,ioos:station:DISL:KATA:1,2013-09-06T13:00:00Z,30.2583,-88.2131,27.08,1111122 
DISL,ioos:station:DISL:KATA:1,2013-09-06T13:30:00Z,30.2583,-88.2131,27.35,1111122 
DISL,ioos:station:DISL:KATA:1,2013-09-06T14:00:00Z,30.2583,-88.2131,27.31,1111122 
DISL,ioos:station:DISL:KATA:1,2013-09-06T14:30:00Z,30.2583,-88.2131,28.84,1111122 
DISL,ioos:station:DISL:KATA:1,2013-09-06T15:00:00Z,30.2583,-88.2131,29.32,1111122 
DISL,ioos:station:DISL:KATA:1,2013-09-06T15:30:00Z,30.2583,-88.2131,29.25,1111122 
DISL,ioos:station:DISL:KATA:1,2013-09-06T16:00:00Z,30.2583,-88.2131,29.83,1111122 
DISL,ioos:station:DISL:KATA:1,2013-09-06T16:30:00Z,30.2583,-88.2131,30.47,1111122 
DISL,ioos:station:DISL:KATA:1,2013-09-06T17:00:00Z,30.2583,-88.2131,30.66,1111122 
DISL,ioos:station:DISL:KATA:1,2013-09-06T17:30:00Z,30.2583,-88.2131,30.82,1111122 
DISL,ioos:station:DISL:KATA:1,2013-09-06T18:00:00Z,30.2583,-88.2131,31.16,1111122 
DISL,ioos:station:DISL:KATA:1,2013-09-06T18:30:00Z,30.2583,-88.2131,30.85,1111122 
DISL,ioos:station:DISL:KATA:1,2013-09-06T19:00:00Z,30.2583,-88.2131,29.6,1111122 
DISL,ioos:station:DISL:KATA:1,2013-09-06T19:30:00Z,30.2583,-88.2131,29.6,1111122 
DISL,ioos:station:DISL:KATA:1,2013-09-06T20:00:00Z,30.2583,-88.2131,29.63,1111122 
DISL,ioos:station:DISL:KATA:1,2013-09-06T20:30:00Z,30.2583,-88.2131,29.73,1111122 
DISL,ioos:station:DISL:KATA:1,2013-09-06T21:00:00Z,30.2583,-88.2131,29.73,1111122 
DISL,ioos:station:DISL:KATA:1,2013-09-06T21:30:00Z,30.2583,-88.2131,29.74,1111122 
DISL,ioos:station:DISL:KATA:1,2013-09-06T22:00:00Z,30.2583,-88.2131,29.72,1111122 
DISL,ioos:station:DISL:KATA:1,2013-09-06T22:30:00Z,30.2583,-88.2131,29.78,1111122 
DISL,ioos:station:DISL:KATA:1,2013-09-06T23:00:00Z,30.2583,-88.2131,29.8,1111122 
DISL,ioos:station:DISL:KATA:1,2013-09-06T23:30:00Z,30.2583,-88.2131,29.73,1111122 